Overview Statistics Trail Chart Weather Telemetry Raw packets
 

This is the latest recevied weather packets stored in our database for station/object IZ1UQG-N2. If no packets are shown the sender has not sent any weather packets the latest 10 day(s).

<< 560 561 562 563 564 565 566 >>
Time Temp. Humidity Pressure Rain* Wind** Luminosity Snow
1787879883 22.22° C 89% 1015 hPa 8.38 mm - 0 W/m² -
1787879823 22.22° C 89% 1014.9 hPa 8.38 mm - 0 W/m² -
1787879762 22.22° C 89% 1014.7 hPa 7.87 mm - 0 W/m² -
1787879704 22.22° C 89% 1014.7 hPa 7.87 mm - 0 W/m² -
1787879643 22.22° C 89% 1014.5 hPa 7.37 mm - 0 W/m² -
1787879583 22.78° C 89% 1014.7 hPa 6.6 mm - 0 W/m² -
1787879523 22.78° C 89% 1014.8 hPa 5.59 mm - 0 W/m² -
1787879463 22.78° C 89% 1014.9 hPa 3.81 mm - 0 W/m² -
1787879402 22.78° C 89% 1015.1 hPa 3.05 mm - 0 W/m² -
1787879343 22.78° C 89% 1015.1 hPa 2.79 mm - 0 W/m² -
1787879282 22.78° C 89% 1015.1 hPa 1.78 mm - 0 W/m² -
1787879224 22.78° C 89% 1015.2 hPa 1.27 mm - 0 W/m² -
1787879164 22.78° C 88% 1015.4 hPa 1.02 mm - 0 W/m² -
1787879103 22.78° C 88% 1015.6 hPa 0.76 mm - 0 W/m² -
1787879043 22.78° C 88% 1015.6 hPa 0.25 mm - 0 W/m² -
1787878983 22.78° C 88% 1015.7 hPa 0 mm - 0 W/m² -
1787878923 22.78° C 88% 1015.6 hPa 0 mm - 0 W/m² -
1787878862 22.78° C 88% 1015.6 hPa 0 mm - 0 W/m² -
1787878802 22.78° C 88% 1015.6 hPa 0 mm - 0 W/m² -
1787878743 22.78° C 88% 1015.5 hPa 0 mm - 0 W/m² -
1787878683 22.78° C 88% 1015.4 hPa 0 mm - 0 W/m² -
1787878622 22.78° C 88% 1015.5 hPa 0 mm - 0 W/m² -
1787878562 22.78° C 88% 1015.4 hPa 0 mm - 0 W/m² -
1787878504 22.78° C 88% 1015.5 hPa 0 mm - 0 W/m² -
1787878450 22.78° C 88% 1015.5 hPa 0 mm - 0 W/m² -

* Rain latest hour (hover to see other rain measurements)
** Current wind speed in m/s (hover to see current wind gust speed)